Weather History for Holland, MI

Change the Weather History Date:

Tuesday, December 18, 2012

  Actual Average Record
Temperature  
Mean Temperature 36 °F 30 °F  
Max Temperature 42 °F 36 °F 52 °F (2002)
Min Temperature 30 °F 26 °F 7 °F (1985)
Degree Days  
Heating Degree Days 29 34  
Month to date heating degree days 428 576  
Since 1 July heating degree days 1669 1799  
Cooling Degree Days 0 0  
Month to date cooling degree days 0 0  
Year to date cooling degree days 1067 693  
Moisture  
Dew Point 30 °F    
Average Humidity 79    
Maximum Humidity 92    
Minimum Humidity 65    
Precipitation  
Precipitation 0.04 in 0.07 in 0.99 in (2002)
Month to date precipitation 1.50 1.53  
Year to date precipitation 32.34 35.69  
Sea Level Pressure  
Sea Level Pressure 29.73 in    
Wind  
Wind Speed 2 mph (ESE)    
Max Wind Speed 12 mph    
Max Gust Speed 16 mph    
Visibility 8 miles    
Events Rain , Snow    
T = Trace of Precipitation, MM = Missing Value Source: NWS Daily Summary

Daily Weather History Graph

Daily Weather History Graph

Search for Another Location

Airport:

Trip Planner

Search our weather history database for the weather conditions in past years. The results will help you decide how hot, cold, wet, or windy it might be!

Date:

Astronomy

Dec. 18, 2012 Rise Set
Actual Time 8:10 AM EST 5:12 PM EST
Civil Twilight 7:37 AM EST 5:44 PM EST
Nautical Twilight 7:02 AM EST 6:20 PM EST
Astronomical Twilight 6:27 AM EST 6:54 PM EST
Moon 11:42 AM EST (12/18) 11:46 PM EST (12/18)
Length of Visible Light 10h 06m
Length of Day
9h 02m
Waxing Crescent, 34% of the Moon is Illuminated
Dec 18
Waxing Crescent
Dec 20
First Quarter
Dec 28
Full
Jan 4
Last Quarter
Jan 11
New

Hourly Weather History & Observations

Time (EST) Temp. Windchill Dew Point Humidity Pressure Visibility Wind Dir Wind Speed Gust Speed Precip Events Conditions
12:53 AM 34.0 °F 31.0 °F 26.1 °F 73% 29.73 in 10.0 mi NNW 3.5 mph - N/A   Mostly Cloudy
1:53 AM 35.1 °F - 26.1 °F 70% 29.73 in 10.0 mi Calm Calm - N/A   Overcast
2:28 AM 33.8 °F - 26.6 °F 75% 29.70 in 10.0 mi Calm Calm - N/A   Scattered Clouds
2:39 AM 33.8 °F - 26.6 °F 75% 29.71 in 10.0 mi Calm Calm - N/A   Mostly Cloudy
2:53 AM 34.0 °F - 26.1 °F 73% 29.73 in 10.0 mi Calm Calm - N/A   Mostly Cloudy
3:04 AM 32.0 °F - 26.6 °F 80% 29.71 in 10.0 mi Calm Calm - N/A   Scattered Clouds
3:12 AM 32.0 °F - 26.6 °F 80% 29.71 in 10.0 mi Calm Calm - N/A   Mostly Cloudy
3:53 AM 33.1 °F - 28.0 °F 82% 29.74 in 9.0 mi Calm Calm - N/A   Overcast
4:48 AM 32.0 °F - 26.6 °F 80% 29.72 in 10.0 mi Calm Calm - N/A   Scattered Clouds
4:53 AM 33.1 °F - 26.1 °F 75% 29.73 in 10.0 mi Calm Calm - N/A   Scattered Clouds
5:00 AM 30.2 °F - 26.6 °F 86% 29.72 in 9.0 mi Calm Calm - N/A   Mostly Cloudy
5:34 AM 30.2 °F - 26.6 °F 86% 29.72 in 9.0 mi Calm Calm - N/A   Scattered Clouds
5:49 AM 30.2 °F - 26.6 °F 86% 29.73 in 8.0 mi Calm Calm - N/A   Mostly Cloudy
5:53 AM 30.9 °F - 27.0 °F 85% 29.75 in 8.0 mi Calm Calm - N/A   Mostly Cloudy
6:53 AM 32.0 °F - 27.0 °F 82% 29.76 in 9.0 mi Calm Calm - N/A   Overcast
7:19 AM 33.8 °F - 28.4 °F 81% 29.75 in 10.0 mi Calm Calm - N/A   Overcast
7:53 AM 33.1 °F - 28.0 °F 82% 29.77 in 10.0 mi Calm Calm - N/A   Overcast
8:33 AM 33.8 °F - 28.4 °F 81% 29.77 in 9.0 mi Calm Calm - N/A   Overcast
8:53 AM 34.0 °F - 28.9 °F 82% 29.79 in 10.0 mi Calm Calm - N/A   Overcast
9:53 AM 37.0 °F - 30.0 °F 76% 29.79 in 10.0 mi Calm Calm - N/A   Overcast
10:11 AM 37.4 °F 34.9 °F 30.2 °F 75% 29.77 in 10.0 mi SSE 3.5 mph - N/A   Overcast
10:18 AM 37.4 °F - 30.2 °F 75% 29.77 in 10.0 mi Calm Calm - N/A   Overcast
10:53 AM 37.9 °F - 30.0 °F 73% 29.80 in 10.0 mi Calm Calm - N/A   Overcast
11:53 AM 39.9 °F 37.8 °F 30.0 °F 68% 29.78 in 10.0 mi SSE 3.5 mph - N/A   Overcast
12:53 PM 39.9 °F 32.9 °F 30.9 °F 70% 29.76 in 10.0 mi South 11.5 mph - N/A   Overcast
1:53 PM 41.0 °F 38.0 °F 30.9 °F 67% 29.73 in 10.0 mi South 4.6 mph - N/A   Mostly Cloudy
2:32 PM 41.0 °F 35.2 °F 30.2 °F 65% 29.69 in 10.0 mi ESE 9.2 mph - N/A   Overcast
2:53 PM 39.9 °F 35.1 °F 30.0 °F 68% 29.71 in 10.0 mi SE 6.9 mph - N/A   Overcast
3:53 PM 39.0 °F 31.4 °F 30.9 °F 73% 29.70 in 8.0 mi SE 12.7 mph - 0.00 in   Overcast
4:04 PM 39.2 °F 33.6 °F 30.2 °F 70% 29.68 in 8.0 mi SE 8.1 mph - N/A   Overcast
4:12 PM 39.2 °F 33.0 °F 30.2 °F 70% 29.67 in 8.0 mi ESE 9.2 mph - N/A   Overcast
4:53 PM 39.0 °F 32.8 °F 30.9 °F 73% 29.68 in 8.0 mi ESE 9.2 mph - N/A   Overcast
5:53 PM 37.9 °F 32.7 °F 30.9 °F 76% 29.70 in 7.0 mi ESE 6.9 mph - 0.00 in Rain Light Rain
6:37 PM 37.4 °F 32.8 °F 30.2 °F 75% 29.70 in 6.0 mi SSE 5.8 mph - 0.00 in Rain Light Rain
6:53 PM 37.0 °F 31.6 °F 30.9 °F 79% 29.72 in 4.0 mi SE 6.9 mph - 0.01 in Snow Light Snow
7:21 PM 35.6 °F 31.7 °F 32.0 °F 87% 29.70 in 2.0 mi ESE 4.6 mph - 0.01 in Snow Light Snow
7:53 PM 35.1 °F 30.1 °F 32.0 °F 89% 29.72 in 2.5 mi ENE 5.8 mph - 0.02 in   Overcast
8:01 PM 35.6 °F 30.7 °F 32.0 °F 87% 29.70 in 3.0 mi ENE 5.8 mph - N/A   Overcast
8:22 PM 35.6 °F 29.9 °F 32.0 °F 87% 29.70 in 2.5 mi ENE 6.9 mph - N/A   Overcast
8:53 PM 36.0 °F 31.1 °F 33.1 °F 89% 29.72 in 2.5 mi East 5.8 mph - N/A   Overcast
9:53 PM 36.0 °F 32.1 °F 33.1 °F 89% 29.72 in 2.5 mi East 4.6 mph - 0.01 in   Overcast
10:09 PM 37.4 °F 33.8 °F 33.8 °F 87% 29.70 in 2.5 mi East 4.6 mph - N/A   Overcast
10:23 PM 37.4 °F 33.8 °F 33.8 °F 87% 29.70 in 3.0 mi ENE 4.6 mph - N/A   Overcast
10:53 PM 37.0 °F 34.5 °F 33.1 °F 86% 29.73 in 3.0 mi ENE 3.5 mph - N/A   Overcast
11:02 PM 37.4 °F 34.9 °F 33.8 °F 87% 29.72 in 3.0 mi NE 3.5 mph - N/A   Overcast
11:53 PM 37.0 °F 34.5 °F 34.0 °F 89% 29.75 in 4.0 mi NNE 3.5 mph - N/A   Overcast